This is the latest recevied weather packets stored in our database for station/object HB9FHL-13. If no packets are shown the sender has not sent any weather packets the latest 10 day(s).
| Time | Temp. | Humidity | Pressure | Rain* | Wind** | Luminosity | Snow |
|---|---|---|---|---|---|---|---|
| 1777561896 | 15° C | - | 1013.2 hPa | 0 mm | - | - | - |
| 1777561595 | 15.56° C | - | 1020.1 hPa | 0 mm | - | - | - |
| 1777561295 | 16.11° C | - | 1023.5 hPa | 0 mm | - | - | - |
| 1777560994 | 14.44° C | - | 1019.1 hPa | 0 mm | - | - | - |
| 1777560694 | 15.56° C | - | 1014.6 hPa | 0 mm | - | - | - |
| 1777560394 | 15.56° C | - | 1012.9 hPa | 0 mm | - | - | - |
| 1777560093 | 16.67° C | - | 1017.4 hPa | 0 mm | - | - | - |
| 1777559792 | 15.56° C | - | 1020.4 hPa | 0 mm | - | - | - |
| 1777559492 | 15.56° C | - | 1022.1 hPa | 0 mm | - | - | - |
| 1777559191 | 15.56° C | - | 1026.3 hPa | 0 mm | - | - | - |
| 1777558886 | 15° C | - | 1024 hPa | 0 mm | - | - | - |
| 1777558582 | 16.11° C | - | 1019.6 hPa | 0 mm | - | - | - |
| 1777558274 | 15.56° C | - | 1008.1 hPa | 0 mm | - | - | - |
| 1777557975 | 15° C | - | 1017.6 hPa | 0 mm | - | - | - |
| 1777557673 | 15.56° C | - | 1016.7 hPa | 0 mm | - | - | - |
| 1777557373 | 15° C | - | 1025.2 hPa | 0 mm | - | - | - |
| 1777557072 | 15° C | - | 1017.4 hPa | 0 mm | - | - | - |
| 1777556772 | 15° C | - | 1024.1 hPa | 0 mm | - | - | - |
| 1777556468 | 15° C | - | 1020.4 hPa | 0 mm | - | - | - |
| 1777556166 | 15.56° C | - | 1017.9 hPa | 0 mm | - | - | - |
| 1777555865 | 14.44° C | - | 1012.4 hPa | 0 mm | - | - | - |
| 1777555565 | 15° C | - | 1018.3 hPa | 0 mm | - | - | - |
| 1777555264 | 15° C | - | 1025.4 hPa | 0 mm | - | - | - |
| 1777554964 | 15.56° C | - | 1001.3 hPa | 0 mm | - | - | - |
| 1777554663 | 16.11° C | - | 1016.5 hPa | 0 mm | - | - | - |
* Rain since midnight (hover to see other rain measurements)
** Current wind speed in m/s (hover to see current wind gust speed)